| time (UTC) | temp F | wind direction | speed MPH | gust MPH | rain 1hr in | rain 24hr in | rain mn in | humidity % | barometer mb |
| 20260904053506 | 58 | 238 | 17.0 | 22.0 | 0.00 | 0.18 | 0.00 | 1003.0 | |
| 20260904050506 | 58 | 238 | 17.0 | 22.0 | 0.00 | 0.18 | 0.00 | 1003.0 | |
| 20260904043505 | 59 | 246 | 18.0 | 23.0 | 0.00 | 0.18 | 0.00 | 1003.0 | |
| 20260904040505 | 59 | 246 | 18.0 | 23.0 | 0.00 | 0.18 | 0.00 | 1003.0 | |
| 20260904033505 | 59 | 241 | 16.0 | 21.0 | 0.00 | 0.18 | 0.00 | 1003.0 | |
| 20260904030505 | 59 | 241 | 16.0 | 21.0 | 0.00 | 0.18 | 0.00 | 1003.0 | |
| 20260904023505 | 59 | 237 | 15.0 | 19.0 | 0.00 | 0.18 | 0.00 | 1004.0 | |
| 20260904020505 | 59 | 237 | 15.0 | 19.0 | 0.00 | 0.18 | 0.00 | 1004.0 | |
| 20260904013506 | 59 | 234 | 16.0 | 21.0 | 0.00 | 0.18 | 0.00 | 1005.0 | |
| 20260904010506 | 59 | 234 | 16.0 | 21.0 | 0.00 | 0.18 | 0.00 | 1005.0 | |
| 20260904003506 | 59 | 234 | 17.0 | 23.0 | 0.00 | 0.18 | 0.00 | 1006.0 | |
| 20260904000506 | 60 | 226 | 15.0 | 19.0 | 0.00 | 0.00 | 0.00 | 1006.0 | |
| 20260903233506 | 60 | 235 | 13.0 | 17.0 | 0.00 | 0.00 | 0.00 | 1007.0 | |
| 20260903230506 | 60 | 235 | 13.0 | 17.0 | 0.00 | 0.18 | 0.00 | 1007.0 | |
| 20260903223506 | 59 | 237 | 15.0 | 19.0 | 0.00 | 0.18 | 0.00 | 1007.0 | |
| 20260903220506 | 59 | 237 | 15.0 | 19.0 | 0.00 | 0.18 | 0.00 | 1007.0 | |
| 20260903213505 | 60 | 241 | 15.0 | 20.0 | 0.00 | 0.18 | 0.00 | 1008.0 | |
| 20260903210505 | 60 | 241 | 15.0 | 20.0 | 0.00 | 0.18 | 0.00 | 1008.0 | |
| 20260903203505 | 60 | 241 | 17.0 | 22.0 | 0.00 | 0.18 | 0.00 | 1008.0 | |
| 20260903200505 | 60 | 241 | 17.0 | 22.0 | 0.00 | 0.18 | 0.00 | 1008.0 | |
| 20260903193505 | 60 | 240 | 16.0 | 21.0 | 0.00 | 0.18 | 0.00 | 1009.0 | |
| 20260903190505 | 60 | 240 | 16.0 | 21.0 | 0.00 | 0.18 | 0.00 | 1009.0 | |
| 20260903183506 | 60 | 243 | 15.0 | 19.0 | 0.00 | 0.18 | 0.00 | 1009.0 | |
| 20260903180505 | 60 | 247 | 15.0 | 19.0 | 0.00 | 0.18 | 0.00 | 1009.0 | |
| 20260903173506 | 60 | 241 | 15.0 | 19.0 | 0.00 | 0.18 | 0.00 | 1009.0 | |
| 20260903170505 | 60 | 241 | 15.0 | 19.0 | 0.00 | 0.18 | 0.00 | 1009.0 | |
| 20260903163506 | 62 | 239 | 13.0 | 17.0 | 0.00 | 0.18 | 0.00 | 1010.0 | |
| 20260903160506 | 62 | 239 | 13.0 | 17.0 | 0.00 | 0.18 | 0.00 | 1009.0 | |
| 20260903153506 | 62 | 243 | 14.0 | 18.0 | 0.00 | 0.18 | 0.00 | 1010.0 | |
| 20260903150506 | 62 | 243 | 14.0 | 18.0 | 0.00 | 0.18 | 0.00 | 1010.0 | |
| 20260903143506 | 61 | 248 | 17.0 | 22.0 | 0.00 | 0.18 | 0.00 | 1010.0 | |
| 20260903140506 | 61 | 248 | 17.0 | 22.0 | 0.00 | 0.18 | 0.00 | 1010.0 | |
| 20260903133505 | 62 | 251 | 18.0 | 24.0 | 0.00 | 0.18 | 0.00 | 1011.0 | |
| 20260903130506 | 62 | 251 | 18.0 | 24.0 | 0.00 | 0.18 | 0.00 | 1011.0 | |
| 20260903123505 | 61 | 255 | 19.0 | 25.0 | 0.00 | 0.18 | 0.00 | 1010.0 | |
| 20260903120505 | 62 | 254 | 17.0 | 22.0 | 0.00 | 0.18 | 0.00 | 1011.0 | |
| 20260903113505 | 61 | 253 | 19.0 | 24.0 | 0.00 | 0.18 | 0.00 | 1011.0 | |
| 20260903110505 | 61 | 253 | 19.0 | 24.0 | 0.00 | 0.18 | 0.00 | 1011.0 | |
| 20260903103505 | 60 | 257 | 21.0 | 27.0 | 0.00 | 0.18 | 0.00 | 1010.0 | |
| 20260903100505 | 60 | 257 | 21.0 | 27.0 | 0.00 | 0.18 | 0.00 | 1010.0 | |
| 20260903093506 | 59 | 258 | 21.0 | 28.0 | 0.00 | 0.18 | 0.00 | 1010.0 | |
| 20260903090506 | 59 | 258 | 21.0 | 28.0 | 0.00 | 0.03 | 0.00 | 1010.0 | |
| 20260903083506 | 59 | 255 | 22.0 | 30.0 | 0.00 | 0.03 | 0.00 | 1010.0 | |
| 20260903080506 | 59 | 255 | 22.0 | 30.0 | 0.00 | 0.03 | 0.00 | 1009.0 | |
| 20260903073506 | 59 | 254 | 22.0 | 30.0 | 0.00 | 0.03 | 0.00 | 1009.0 | |
| 20260903070506 | 59 | 254 | 22.0 | 30.0 | 0.00 | 0.03 | 0.00 | 1009.0 | |
| 20260903063506 | 60 | 253 | 21.0 | 29.0 | 0.00 | 0.03 | 0.00 | 1009.0 | |
| 20260903060506 | 60 | 252 | 22.0 | 30.0 | 0.00 | 0.03 | 0.00 | 1008.0 |